Погода в Леже

Албания     41°46′49″N   19°38′37″E
темп.,
°C
ветер,
м/с
пор.,
м/с
влажн.,
%
обл.,
%
осадки,
мм/ч
давл.,
гПа
погр.,
м
7 марта, вс
вс701:00+3всв34650 0.0 1028148
04:00+2всв34640 0.0 1027114
07:00+2св34610 0.0 1027162
10:00+9св22460 0.0 1025469
13:00+13зсз22420 0.0 1023910
16:00+12з22500 0.0 1021678
19:00+7з11750 0.0 102165
22:00+6юв11780 0.0 102170
8 марта, пн
пн801:00+5вюв11800 0.0 102127
04:00+4в11820 0.0 101929
07:00+5всв11760 0.0 101833
10:00+12з11534 0.0 1018554
13:00+13з225050 0.0 1017892
16:00+12сз225597 0.0 1015714
19:00+10св126994 0.0 101650
22:00+10ссв1272100 0.0 101748
9 марта, вт
вт901:00+9св2278100 0.1 101765
04:00+8всв1291100 1.7 1016130
07:00+7св2391100 4.9 1016217
10:00+7всв3489100 2.6 1016328
13:00+6св3389100 4.3 1016274
16:00+7всв3488100 1.6 1015264
19:00+6св3392100 4.6 1016192
22:00+6св3394100 7.3 1015185
10 марта, ср
ср1001:00+6св3494100 17.9 1015243
04:00+5св3494100 14.2 1015295
07:00+5всв41091100 23.4 1016518
10:00+8всв4875100 0.9 1018766
13:00+10св476287 0.9 1018878
16:00+10св37610 0.0 1018783
19:00+5всв23780 0.0 102067
22:00+4всв33760 0.0 102365
11 марта, чт
чт1101:00+3всв33760 0.0 102461
04:00+2всв33750 0.0 102458
07:00+3всв22710 0.0 102583
10:00+11св12470 0.0 1025499
13:00+13зюз22410 0.0 1025941
16:00+11з22490 0.0 1024443
19:00+7юв11640 0.0 102531
22:00+6в11720 0.0 102529